TimePST,TemperatureF,Dew PointF,Humidity,Sea Level PressureIn,VisibilityMPH,Wind Direction,Wind SpeedMPH,Gust SpeedMPH,PrecipitationIn,Events,Conditions,WindDirDegrees,DateUTC
12:56 AM,32.0,32.0,100,-9999,-9999.0,Calm,Calm,-,N/A,,Mostly Cloudy,0,2013-12-06 08:56:00
1:56 AM,30.0,30.0,100,-9999,-9999.0,Calm,Calm,-,N/A,,Mostly Cloudy,0,2013-12-06 09:56:00
2:56 AM,34.9,34.9,100,-9999,-9999.0,Calm,Calm,-,N/A,,Overcast,0,2013-12-06 10:56:00
3:56 AM,34.9,34.9,100,-9999,-9999.0,Calm,Calm,-,N/A,,Overcast,0,2013-12-06 11:56:00
4:56 AM,34.0,34.0,100,-9999,-9999.0,Calm,Calm,-,N/A,,Mostly Cloudy,0,2013-12-06 12:56:00
5:56 AM,34.9,34.9,100,-9999,-9999.0,Calm,Calm,-,N/A,,Mostly Cloudy,0,2013-12-06 13:56:00
6:56 AM,36.0,36.0,100,-9999,-9999.0,Calm,Calm,-,N/A,,Overcast,0,2013-12-06 14:56:00
7:56 AM,39.9,39.9,100,-9999,-9999.0,Calm,Calm,-,N/A,,Overcast,0,2013-12-06 15:56:00
8:56 AM,46.9,37.9,71,-9999,-9999.0,Calm,Calm,-,N/A,,Mostly Cloudy,0,2013-12-06 16:56:00
9:56 AM,50.9,36.9,59,-9999,-9999.0,Calm,Calm,-,N/A,,Mostly Cloudy,0,2013-12-06 17:56:00
10:56 AM,50.9,36.0,57,-9999,-9999.0,Calm,Calm,-,N/A,,Mostly Cloudy,0,2013-12-06 18:56:00
11:56 AM,52.9,36.9,55,-9999,-9999.0,Calm,Calm,-,N/A,,Mostly Cloudy,0,2013-12-06 19:56:00
12:56 PM,52.9,34.9,50,-9999,-9999.0,Calm,Calm,-,N/A,,Mostly Cloudy,0,2013-12-06 20:56:00
1:56 PM,57.9,36.0,44,-9999,-9999.0,Calm,Calm,-,N/A,,Mostly Cloudy,0,2013-12-06 21:56:00
2:56 PM,54.0,36.0,51,-9999,-9999.0,Calm,Calm,-,N/A,,Clear,0,2013-12-06 22:56:00
3:56 PM,54.9,36.9,51,-9999,-9999.0,Calm,Calm,-,N/A,,Mostly Cloudy,0,2013-12-06 23:56:00
4:56 PM,52.0,36.9,56,-9999,-9999.0,Calm,Calm,-,N/A,,Mostly Cloudy,0,2013-12-07 00:56:00
5:56 PM,50.0,36.9,61,30.11,10.0,Calm,Calm,-,N/A,,Partly Cloudy,0,2013-12-07 01:56:00
6:56 PM,41.0,34.9,79,30.12,10.0,Calm,Calm,-,N/A,,Partly Cloudy,0,2013-12-07 02:56:00
7:56 PM,37.9,34.9,89,30.12,10.0,Calm,Calm,-,N/A,,Clear,0,2013-12-07 03:56:00
8:56 PM,38.8,36.9,93,30.14,10.0,Calm,Calm,-,N/A,,Mostly Cloudy,0,2013-12-07 04:56:00
9:56 PM,38.8,36.9,93,30.13,10.0,Calm,Calm,-,N/A,,Clear,0,2013-12-07 05:56:00
10:56 PM,34.9,34.9,100,30.14,10.0,Calm,Calm,-,N/A,,Clear,0,2013-12-07 06:56:00
11:56 PM,34.0,34.0,100,30.14,10.0,Calm,Calm,-,N/A,,Clear,0,2013-12-07 07:56:00